| time (UTC) | temp F | wind direction | speed MPH | gust MPH | rain 1hr in | rain 24hr in | rain mn in | humidity % | barometer mb |
| 20260904210003 | 96 | 233 | 4.0 | 8.0 | 0.00 | 0.00 | 0.00 | 55 | 1010.8 |
| 20260904205503 | 96 | 211 | 4.0 | 8.0 | 0.00 | 0.00 | 0.00 | 57 | 1010.8 |
| 20260904205003 | 96 | 212 | 4.0 | 9.0 | 0.00 | 0.00 | 0.00 | 55 | 1010.8 |
| 20260904204713 | 96 | 212 | 4.0 | 11.0 | 0.00 | 0.00 | 0.00 | 54 | 1010.9 |
| 20260904204003 | 96 | 203 | 4.0 | 11.0 | 0.00 | 0.00 | 0.00 | 55 | 1010.8 |
| 20260904203503 | 96 | 217 | 3.0 | 7.0 | 0.00 | 0.00 | 0.00 | 56 | 1010.8 |
| 20260904203003 | 96 | 235 | 4.0 | 8.0 | 0.00 | 0.00 | 0.00 | 54 | 1010.8 |
| 20260904202504 | 96 | 218 | 4.0 | 12.0 | 0.00 | 0.00 | 0.00 | 56 | 1010.8 |
| 20260904202003 | 96 | 194 | 4.0 | 12.0 | 0.00 | 0.00 | 0.00 | 55 | 1010.9 |
| 20260904201504 | 95 | 174 | 4.0 | 11.0 | 0.00 | 0.00 | 0.00 | 58 | 1010.9 |
| 20260904201214 | 95 | 164 | 4.0 | 11.0 | 0.00 | 0.00 | 0.00 | 56 | 1011.0 |
| 20260904200503 | 96 | 180 | 4.0 | 11.0 | 0.00 | 0.00 | 0.00 | 56 | 1011.0 |
| 20260904200214 | 96 | 190 | 4.0 | 11.0 | 0.00 | 0.00 | 0.00 | 55 | 1011.0 |
| 20260904195714 | 96 | 205 | 4.0 | 11.0 | 0.00 | 0.00 | 0.00 | 55 | 1011.0 |
| 20260904195003 | 95 | 215 | 4.0 | 8.0 | 0.00 | 0.00 | 0.00 | 57 | 1011.0 |
| 20260904194503 | 95 | 215 | 4.0 | 8.0 | 0.00 | 0.00 | 0.00 | 57 | 1011.1 |
| 20260904194003 | 94 | 214 | 4.0 | 9.0 | 0.00 | 0.00 | 0.00 | 57 | 1011.2 |
| 20260904193503 | 94 | 208 | 4.0 | 9.0 | 0.00 | 0.00 | 0.00 | 57 | 1011.2 |
| 20260904193003 | 94 | 225 | 4.0 | 9.0 | 0.00 | 0.00 | 0.00 | 57 | 1011.2 |
| 20260904192504 | 94 | 247 | 4.0 | 9.0 | 0.00 | 0.00 | 0.00 | 57 | 1011.2 |
| 20260904192003 | 94 | 220 | 4.0 | 9.0 | 0.00 | 0.00 | 0.00 | 60 | 1011.2 |
| 20260904191714 | 94 | 200 | 4.0 | 9.0 | 0.00 | 0.00 | 0.00 | 59 | 1011.3 |
| 20260904191004 | 94 | 193 | 3.0 | 8.0 | 0.00 | 0.00 | 0.00 | 58 | 1011.4 |
| 20260904190714 | 94 | 186 | 3.0 | 8.0 | 0.00 | 0.00 | 0.00 | 58 | 1011.4 |
| 20260904190003 | 93 | 189 | 3.0 | 7.0 | 0.00 | 0.00 | 0.00 | 60 | 1011.3 |
| 20260904185503 | 93 | 208 | 3.0 | 8.0 | 0.00 | 0.00 | 0.00 | 58 | 1011.5 |
| 20260904185004 | 93 | 213 | 3.0 | 8.0 | 0.00 | 0.00 | 0.00 | 61 | 1011.5 |
| 20260904184504 | 93 | 242 | 3.0 | 8.0 | 0.00 | 0.00 | 0.00 | 60 | 1011.6 |
| 20260904184213 | 93 | 244 | 3.0 | 9.0 | 0.00 | 0.00 | 0.00 | 58 | 1011.5 |
| 20260904183714 | 92 | 228 | 4.0 | 9.0 | 0.00 | 0.00 | 0.00 | 59 | 1011.6 |
| 20260904183003 | 92 | 230 | 4.0 | 10.0 | 0.00 | 0.00 | 0.00 | 61 | 1011.6 |
| 20260904182503 | 92 | 204 | 4.0 | 7.0 | 0.00 | 0.00 | 0.00 | 59 | 1011.6 |
| 20260904182215 | 92 | 188 | 4.0 | 7.0 | 0.00 | 0.00 | 0.00 | 62 | 1011.6 |
| 20260904181504 | 92 | 191 | 4.0 | 8.0 | 0.00 | 0.00 | 0.00 | 60 | 1011.6 |
| 20260904181003 | 92 | 182 | 4.0 | 8.0 | 0.00 | 0.00 | 0.00 | 60 | 1011.6 |
| 20260904180714 | 91 | 169 | 4.0 | 8.0 | 0.00 | 0.00 | 0.00 | 60 | 1011.6 |
| 20260904180003 | 91 | 169 | 4.0 | 9.0 | 0.00 | 0.00 | 0.00 | 60 | 1011.6 |
| 20260904175503 | 91 | 176 | 4.0 | 9.0 | 0.00 | 0.00 | 0.00 | 61 | 1011.6 |
| 20260904175003 | 91 | 188 | 4.0 | 8.0 | 0.00 | 0.00 | 0.00 | 61 | 1011.7 |
| 20260904174503 | 91 | 213 | 3.0 | 7.0 | 0.00 | 0.00 | 0.00 | 60 | 1011.7 |
| 20260904174003 | 91 | 214 | 3.0 | 7.0 | 0.00 | 0.00 | 0.00 | 63 | 1011.7 |
| 20260904173503 | 91 | 219 | 3.0 | 6.0 | 0.00 | 0.00 | 0.00 | 62 | 1011.7 |
| 20260904173003 | 91 | 245 | 2.0 | 9.0 | 0.00 | 0.00 | 0.00 | 61 | 1011.7 |
| 20260904172503 | 90 | 252 | 3.0 | 9.0 | 0.00 | 0.00 | 0.00 | 61 | 1011.7 |
| 20260904172003 | 90 | 245 | 3.0 | 8.0 | 0.00 | 0.00 | 0.00 | 62 | 1011.7 |
| 20260904171503 | 90 | 219 | 3.0 | 8.0 | 0.00 | 0.00 | 0.00 | 63 | 1011.7 |
| 20260904171214 | 90 | 197 | 3.0 | 10.0 | 0.00 | 0.00 | 0.00 | 65 | 1011.8 |
| 20260904170503 | 89 | 181 | 4.0 | 10.0 | 0.00 | 0.00 | 0.00 | 64 | 1011.7 |
| 20260904170003 | 89 | 207 | 4.0 | 9.0 | 0.00 | 0.00 | 0.00 | 66 | 1011.6 |
| 20260904165503 | 88 | 241 | 3.0 | 8.0 | 0.00 | 0.00 | 0.00 | 64 | 1011.6 |
| 20260904165003 | 88 | 226 | 3.0 | 8.0 | 0.00 | 0.00 | 0.00 | 64 | 1011.6 |
| 20260904164503 | 88 | 207 | 3.0 | 9.0 | 0.00 | 0.00 | 0.00 | 66 | 1011.7 |
| 20260904164214 | 88 | 202 | 4.0 | 9.0 | 0.00 | 0.00 | 0.00 | 66 | 1011.6 |
| 20260904163503 | 87 | 203 | 4.0 | 9.0 | 0.00 | 0.00 | 0.00 | 66 | 1011.7 |
| 20260904163003 | 87 | 197 | 3.0 | 7.0 | 0.00 | 0.00 | 0.00 | 67 | 1011.7 |
| 20260904162503 | 86 | 187 | 3.0 | 8.0 | 0.00 | 0.00 | 0.00 | 68 | 1011.7 |
| 20260904162003 | 86 | 193 | 4.0 | 11.0 | 0.00 | 0.00 | 0.00 | 68 | 1011.6 |
| 20260904161503 | 86 | 201 | 4.0 | 11.0 | 0.00 | 0.00 | 0.00 | 67 | 1011.6 |
| 20260904161003 | 86 | 199 | 4.0 | 10.0 | 0.00 | 0.00 | 0.00 | 70 | 1011.7 |
| 20260904160713 | 86 | 189 | 4.0 | 10.0 | 0.00 | 0.00 | 0.00 | 69 | 1011.7 |
| 20260904160003 | 86 | 191 | 5.0 | 9.0 | 0.00 | 0.00 | 0.00 | 69 | 1011.8 |
| 20260904155503 | 85 | 189 | 5.0 | 10.0 | 0.00 | 0.00 | 0.00 | 69 | 1011.9 |
| 20260904155214 | 85 | 183 | 5.0 | 10.0 | 0.00 | 0.00 | 0.00 | 70 | 1011.8 |
| 20260904154503 | 85 | 187 | 4.0 | 9.0 | 0.00 | 0.00 | 0.00 | 70 | 1011.8 |
| 20260904154003 | 85 | 199 | 3.0 | 9.0 | 0.00 | 0.00 | 0.00 | 70 | 1011.7 |
| 20260904153503 | 84 | 206 | 3.0 | 9.0 | 0.00 | 0.00 | 0.00 | 70 | 1011.7 |
| 20260904153003 | 84 | 199 | 3.0 | 8.0 | 0.00 | 0.00 | 0.00 | 71 | 1011.8 |
| 20260904152503 | 84 | 208 | 3.0 | 7.0 | 0.00 | 0.00 | 0.00 | 71 | 1011.7 |
| 20260904152003 | 84 | 200 | 3.0 | 8.0 | 0.00 | 0.00 | 0.00 | 73 | 1011.7 |
| 20260904151712 | 83 | 190 | 4.0 | 8.0 | 0.00 | 0.00 | 0.00 | 72 | 1011.7 |
| 20260904151004 | 83 | 179 | 4.0 | 9.0 | 0.00 | 0.00 | 0.00 | 72 | 1011.7 |
| 20260904150503 | 83 | 178 | 4.0 | 8.0 | 0.00 | 0.00 | 0.00 | 73 | 1011.7 |
| 20260904150004 | 82 | 194 | 4.0 | 8.0 | 0.00 | 0.00 | 0.00 | 73 | 1011.8 |
| 20260904145712 | 82 | 214 | 3.0 | 8.0 | 0.00 | 0.00 | 0.00 | 73 | 1011.7 |
| 20260904145003 | 82 | 219 | 3.0 | 9.0 | 0.00 | 0.00 | 0.00 | 74 | 1011.8 |
| 20260904144503 | 82 | 187 | 3.0 | 9.0 | 0.00 | 0.00 | 0.00 | 74 | 1011.8 |
| 20260904144213 | 82 | 179 | 4.0 | 9.0 | 0.00 | 0.00 | 0.00 | 74 | 1011.7 |
| 20260904143503 | 81 | 184 | 4.0 | 7.0 | 0.00 | 0.00 | 0.00 | 74 | 1011.8 |
| 20260904143003 | 81 | 194 | 3.0 | 7.0 | 0.00 | 0.00 | 0.00 | 74 | 1011.7 |
| 20260904142504 | 81 | 184 | 3.0 | 6.0 | 0.00 | 0.00 | 0.00 | 76 | 1011.5 |
| 20260904142004 | 81 | 170 | 2.0 | 6.0 | 0.00 | 0.00 | 0.00 | 76 | 1011.6 |
| 20260904141503 | 80 | 187 | 2.0 | 6.0 | 0.00 | 0.00 | 0.00 | 77 | 1011.6 |
| 20260904141003 | 80 | 186 | 2.0 | 6.0 | 0.00 | 0.00 | 0.00 | 77 | 1011.6 |
| 20260904140503 | 80 | 179 | 3.0 | 7.0 | 0.00 | 0.00 | 0.00 | 77 | 1011.7 |
| 20260904140003 | 80 | 177 | 4.0 | 7.0 | 0.00 | 0.00 | 0.00 | 77 | 1011.7 |
| 20260904135714 | 80 | 176 | 4.0 | 7.0 | 0.00 | 0.00 | 0.00 | 77 | 1011.6 |
| 20260904135213 | 79 | 176 | 4.0 | 6.0 | 0.00 | 0.00 | 0.00 | 77 | 1011.6 |
| 20260904134503 | 79 | 163 | 3.0 | 7.0 | 0.00 | 0.00 | 0.00 | 78 | 1011.6 |
| 20260904134003 | 79 | 162 | 2.0 | 7.0 | 0.00 | 0.00 | 0.00 | 78 | 1011.5 |
| 20260904133503 | 79 | 156 | 2.0 | 5.0 | 0.00 | 0.00 | 0.00 | 79 | 1011.5 |
| 20260904133213 | 79 | 159 | 2.0 | 5.0 | 0.00 | 0.00 | 0.00 | 78 | 1011.5 |
| 20260904132503 | 78 | 169 | 2.0 | 5.0 | 0.00 | 0.00 | 0.00 | 79 | 1011.5 |
| 20260904132003 | 78 | 158 | 2.0 | 5.0 | 0.00 | 0.00 | 0.00 | 79 | 1011.4 |
| 20260904131503 | 78 | 141 | 2.0 | 7.0 | 0.00 | 0.00 | 0.00 | 79 | 1011.4 |
| 20260904131003 | 78 | 138 | 3.0 | 7.0 | 0.00 | 0.00 | 0.00 | 79 | 1011.3 |
| 20260904130714 | 78 | 134 | 3.0 | 7.0 | 0.00 | 0.00 | 0.00 | 79 | 1011.2 |
| 20260904130213 | 78 | 130 | 2.0 | 5.0 | 0.00 | 0.00 | 0.00 | 79 | 1011.1 |
| 20260904125503 | 78 | 124 | 2.0 | 4.0 | 0.00 | 0.00 | 0.00 | 80 | 1011.1 |
| 20260904125004 | 78 | 141 | 2.0 | 4.0 | 0.00 | 0.00 | 0.00 | 80 | 1011.0 |
| 20260904124503 | 77 | 156 | 2.0 | 4.0 | 0.00 | 0.00 | 0.00 | 80 | 1010.9 |
| 20260904124003 | 77 | 171 | 1.0 | 3.0 | 0.00 | 0.00 | 0.00 | 80 | 1010.9 |
| 20260904123503 | 77 | 174 | 0.0 | 3.0 | 0.00 | 0.00 | 0.00 | 80 | 1010.9 |
| 20260904123003 | 77 | 194 | 0.0 | 3.0 | 0.00 | 0.00 | 0.00 | 80 | 1010.7 |
| 20260904122505 | 77 | 194 | 0.0 | 3.0 | 0.00 | 0.00 | 0.00 | 80 | 1010.7 |
| 20260904122003 | 77 | 194 | 0.0 | 2.0 | 0.00 | 0.00 | 0.00 | 80 | 1010.7 |
| 20260904121714 | 77 | 194 | 0.0 | 2.0 | 0.00 | 0.00 | 0.00 | 80 | 1010.8 |
| 20260904121003 | 77 | 0 | 0.0 | 1.0 | 0.00 | 0.00 | 0.00 | 79 | 1010.8 |
| 20260904120503 | 77 | 0 | 0.0 | 0.0 | 0.00 | 0.00 | 0.00 | 79 | 1010.7 |
| 20260904120212 | 77 | 0 | 0.0 | 0.0 | 0.00 | 0.00 | 0.00 | 79 | 1010.7 |
| 20260904115503 | 77 | 194 | 0.0 | 2.0 | 0.00 | 0.00 | 0.00 | 78 | 1010.7 |
| 20260904115003 | 78 | 194 | 0.0 | 2.0 | 0.00 | 0.00 | 0.00 | 78 | 1010.7 |
| 20260904114503 | 78 | 194 | 0.0 | 3.0 | 0.00 | 0.00 | 0.00 | 78 | 1010.6 |
| 20260904114003 | 78 | 194 | 1.0 | 3.0 | 0.00 | 0.00 | 0.00 | 78 | 1010.5 |
| 20260904113503 | 78 | 194 | 0.0 | 3.0 | 0.00 | 0.00 | 0.00 | 77 | 1010.5 |
| 20260904113003 | 78 | 194 | 0.0 | 3.0 | 0.00 | 0.00 | 0.00 | 77 | 1010.5 |
| 20260904112503 | 78 | 194 | 0.0 | 3.0 | 0.00 | 0.00 | 0.00 | 77 | 1010.4 |
| 20260904112004 | 78 | 194 | 0.0 | 3.0 | 0.00 | 0.00 | 0.00 | 77 | 1010.7 |
| 20260904111503 | 78 | 194 | 1.0 | 3.0 | 0.00 | 0.00 | 0.00 | 76 | 1010.5 |
| 20260904111003 | 78 | 192 | 1.0 | 5.0 | 0.00 | 0.00 | 0.00 | 76 | 1010.5 |
| 20260904110713 | 78 | 188 | 2.0 | 5.0 | 0.00 | 0.00 | 0.00 | 76 | 1010.5 |
| 20260904110003 | 79 | 199 | 2.0 | 5.0 | 0.00 | 0.00 | 0.00 | 76 | 1010.5 |
| 20260904105713 | 79 | 200 | 2.0 | 5.0 | 0.00 | 0.00 | 0.00 | 76 | 1010.4 |
| 20260904105003 | 79 | 201 | 2.0 | 5.0 | 0.00 | 0.00 | 0.00 | 75 | 1010.4 |
| 20260904104504 | 79 | 202 | 2.0 | 8.0 | 0.00 | 0.00 | 0.00 | 75 | 1010.3 |
| 20260904104003 | 79 | 201 | 2.0 | 8.0 | 0.00 | 0.00 | 0.00 | 74 | 1010.3 |
| 20260904103503 | 79 | 205 | 2.0 | 7.0 | 0.00 | 0.01 | 0.00 | 74 | 1010.4 |
| 20260904103003 | 80 | 202 | 2.0 | 6.0 | 0.00 | 0.01 | 0.00 | 74 | 1010.4 |
| 20260904102503 | 80 | 207 | 3.0 | 7.0 | 0.00 | 0.01 | 0.00 | 74 | 1010.4 |
| 20260904102004 | 80 | 210 | 3.0 | 7.0 | 0.00 | 0.01 | 0.00 | 73 | 1010.4 |
| 20260904101503 | 80 | 211 | 3.0 | 7.0 | 0.00 | 0.01 | 0.00 | 73 | 1010.4 |
| 20260904101003 | 80 | 211 | 4.0 | 10.0 | 0.00 | 0.01 | 0.00 | 73 | 1010.4 |
| 20260904100504 | 80 | 212 | 4.0 | 10.0 | 0.00 | 0.01 | 0.00 | 73 | 1010.3 |
| 20260904100003 | 80 | 217 | 3.0 | 9.0 | 0.00 | 0.01 | 0.00 | 73 | 1010.3 |
| 20260904095503 | 80 | 215 | 3.0 | 8.0 | 0.00 | 0.01 | 0.00 | 72 | 1010.2 |
| 20260904095003 | 81 | 206 | 3.0 | 9.0 | 0.00 | 0.01 | 0.00 | 72 | 1010.2 |
| 20260904094503 | 81 | 202 | 4.0 | 10.0 | 0.00 | 0.01 | 0.00 | 71 | 1010.1 |
| 20260904094003 | 81 | 203 | 4.0 | 10.0 | 0.00 | 0.01 | 0.00 | 71 | 1010.1 |
| 20260904093504 | 81 | 205 | 4.0 | 12.0 | 0.00 | 0.01 | 0.00 | 71 | 1010.1 |
| 20260904093004 | 81 | 200 | 4.0 | 12.0 | 0.00 | 0.01 | 0.00 | 71 | 1010.1 |
| 20260904092503 | 81 | 203 | 4.0 | 9.0 | 0.00 | 0.01 | 0.00 | 71 | 1009.9 |
| 20260904092003 | 81 | 207 | 4.0 | 13.0 | 0.00 | 0.01 | 0.00 | 70 | 1009.9 |
| 20260904091504 | 81 | 201 | 5.0 | 13.0 | 0.00 | 0.01 | 0.00 | 70 | 1009.8 |
| 20260904091003 | 81 | 202 | 6.0 | 14.0 | 0.00 | 0.01 | 0.00 | 71 | 1009.7 |
| 20260904090503 | 81 | 200 | 6.0 | 15.0 | 0.00 | 0.01 | 0.00 | 71 | 1009.7 |
| 20260904090003 | 81 | 203 | 6.0 | 15.0 | 0.00 | 0.01 | 0.00 | 71 | 1009.7 |
| 20260904085503 | 81 | 207 | 6.0 | 14.0 | 0.00 | 0.01 | 0.00 | 71 | 1009.8 |
| 20260904085003 | 81 | 208 | 5.0 | 14.0 | 0.00 | 0.01 | 0.00 | 71 | 1009.7 |
| 20260904084503 | 81 | 206 | 5.0 | 14.0 | 0.00 | 0.01 | 0.00 | 71 | 1009.7 |
| 20260904084003 | 81 | 208 | 5.0 | 13.0 | 0.00 | 0.01 | 0.00 | 71 | 1009.7 |
| 20260904083503 | 81 | 215 | 5.0 | 13.0 | 0.00 | 0.01 | 0.00 | 71 | 1009.6 |
| 20260904083003 | 81 | 215 | 5.0 | 11.0 | 0.00 | 0.01 | 0.00 | 71 | 1009.6 |
| 20260904082503 | 81 | 210 | 6.0 | 16.0 | 0.00 | 0.01 | 0.00 | 70 | 1009.7 |
| 20260904082213 | 82 | 208 | 6.0 | 16.0 | 0.00 | 0.01 | 0.00 | 69 | 1009.6 |
| 20260904081503 | 82 | 203 | 5.0 | 13.0 | 0.00 | 0.01 | 0.00 | 68 | 1009.6 |
| 20260904081003 | 82 | 200 | 5.0 | 14.0 | 0.00 | 0.01 | 0.00 | 68 | 1009.7 |
| 20260904080503 | 82 | 200 | 6.0 | 17.0 | 0.00 | 0.01 | 0.00 | 68 | 1009.7 |
| 20260904080004 | 82 | 200 | 5.0 | 17.0 | 0.00 | 0.01 | 0.00 | 68 | 1009.7 |
| 20260904075714 | 82 | 202 | 5.0 | 17.0 | 0.00 | 0.01 | 0.00 | 68 | 1009.8 |
| 20260904075003 | 82 | 204 | 6.0 | 15.0 | 0.00 | 0.01 | 0.00 | 68 | 1009.7 |
| 20260904074714 | 82 | 205 | 6.0 | 15.0 | 0.00 | 0.01 | 0.00 | 67 | 1009.8 |
| 20260904074213 | 82 | 204 | 5.0 | 17.0 | 0.00 | 0.01 | 0.00 | 67 | 1009.8 |
| 20260904073503 | 82 | 210 | 5.0 | 15.0 | 0.00 | 0.01 | 0.00 | 67 | 1009.7 |
| 20260904073213 | 82 | 209 | 5.0 | 15.0 | 0.00 | 0.01 | 0.00 | 67 | 1009.7 |
| 20260904072503 | 82 | 210 | 5.0 | 12.0 | 0.00 | 0.01 | 0.00 | 67 | 1009.7 |
| 20260904072003 | 82 | 208 | 5.0 | 12.0 | 0.00 | 0.01 | 0.00 | 67 | 1009.8 |
| 20260904071503 | 82 | 197 | 4.0 | 9.0 | 0.00 | 0.01 | 0.00 | 66 | 1009.7 |
| 20260904071214 | 82 | 196 | 5.0 | 11.0 | 0.00 | 0.01 | 0.00 | 66 | 1009.7 |
| 20260904070714 | 82 | 196 | 5.0 | 11.0 | 0.00 | 0.01 | 0.00 | 66 | 1009.7 |
| 20260904070003 | 82 | 195 | 5.0 | 14.0 | 0.00 | 0.01 | 0.00 | 66 | 1009.7 |
| 20260904065503 | 83 | 196 | 5.0 | 14.0 | 0.00 | 0.01 | 0.00 | 65 | 1009.8 |
| 20260904065004 | 83 | 191 | 5.0 | 13.0 | 0.00 | 0.01 | 0.00 | 65 | 1009.7 |
| 20260904064503 | 83 | 191 | 5.0 | 13.0 | 0.00 | 0.01 | 0.00 | 65 | 1009.7 |
| 20260904064214 | 83 | 197 | 5.0 | 13.0 | 0.00 | 0.01 | 0.00 | 65 | 1009.7 |
| 20260904063713 | 83 | 195 | 5.0 | 12.0 | 0.00 | 0.01 | 0.00 | 65 | 1009.7 |
| 20260904063212 | 83 | 191 | 5.0 | 12.0 | 0.00 | 0.01 | 0.00 | 65 | 1009.8 |
| 20260904062713 | 83 | 190 | 5.0 | 12.0 | 0.00 | 0.01 | 0.00 | 65 | 1009.7 |
| 20260904062214 | 83 | 189 | 5.0 | 14.0 | 0.00 | 0.01 | 0.00 | 65 | 1009.8 |
| 20260904061503 | 83 | 187 | 5.0 | 11.0 | 0.00 | 0.01 | 0.00 | 65 | 1009.7 |
| 20260904061003 | 83 | 180 | 5.0 | 10.0 | 0.00 | 0.01 | 0.00 | 65 | 1009.7 |
| 20260904060503 | 83 | 181 | 5.0 | 12.0 | 0.00 | 0.01 | 0.00 | 65 | 1009.6 |
| 20260904060003 | 83 | 182 | 5.0 | 12.0 | 0.00 | 0.01 | 0.00 | 65 | 1009.6 |
| 20260904055503 | 83 | 183 | 5.0 | 12.0 | 0.00 | 0.01 | 0.00 | 65 | 1009.6 |
| 20260904055003 | 83 | 182 | 5.0 | 12.0 | 0.00 | 0.01 | 0.00 | 65 | 1009.6 |
| 20260904054503 | 83 | 185 | 5.0 | 14.0 | 0.00 | 0.01 | 0.00 | 65 | 1009.5 |
| 20260904054003 | 83 | 189 | 6.0 | 14.0 | 0.00 | 0.01 | 0.00 | 65 | 1009.5 |
| 20260904053503 | 83 | 182 | 6.0 | 14.0 | 0.00 | 0.01 | 0.00 | 65 | 1009.4 |
| 20260904053214 | 84 | 179 | 6.0 | 16.0 | 0.00 | 0.01 | 0.00 | 64 | 1009.4 |
| 20260904052504 | 84 | 178 | 5.0 | 16.0 | 0.00 | 0.01 | 0.00 | 64 | 1009.3 |
| 20260904052003 | 84 | 180 | 5.0 | 11.0 | 0.00 | 0.01 | 0.00 | 64 | 1009.3 |
| 20260904051503 | 84 | 175 | 7.0 | 14.0 | 0.00 | 0.01 | 0.00 | 64 | 1009.2 |
| 20260904051004 | 84 | 169 | 7.0 | 14.0 | 0.00 | 0.01 | 0.00 | 63 | 1009.3 |
| 20260904050713 | 84 | 169 | 6.0 | 16.0 | 0.00 | 0.01 | 0.00 | 63 | 1009.2 |
| 20260904050214 | 84 | 169 | 5.0 | 16.0 | 0.00 | 0.01 | 0.00 | 63 | 1009.3 |
| 20260904045503 | 84 | 163 | 6.0 | 13.0 | 0.00 | 0.01 | 0.01 | 63 | 1009.2 |
| 20260904045003 | 84 | 162 | 6.0 | 13.0 | 0.00 | 0.01 | 0.01 | 63 | 1009.2 |
| 20260904044503 | 84 | 158 | 5.0 | 12.0 | 0.00 | 0.01 | 0.01 | 64 | 1009.2 |
| 20260904044003 | 84 | 155 | 4.0 | 12.0 | 0.00 | 0.01 | 0.01 | 64 | 1009.1 |
| 20260904043503 | 84 | 155 | 4.0 | 8.0 | 0.00 | 0.01 | 0.01 | 64 | 1009.1 |
| 20260904043003 | 84 | 151 | 4.0 | 12.0 | 0.00 | 0.01 | 0.01 | 64 | 1009.1 |
| 20260904042715 | 84 | 150 | 4.0 | 12.0 | 0.00 | 0.01 | 0.01 | 64 | 1009.1 |
| 20260904042003 | 84 | 148 | 6.0 | 11.0 | 0.00 | 0.01 | 0.01 | 64 | 1009.2 |
| 20260904041712 | 84 | 151 | 6.0 | 11.0 | 0.00 | 0.01 | 0.01 | 65 | 1009.2 |
| 20260904041004 | 84 | 153 | 5.0 | 10.0 | 0.00 | 0.01 | 0.01 | 65 | 1009.2 |
| 20260904040503 | 84 | 154 | 5.0 | 11.0 | 0.00 | 0.01 | 0.01 | 65 | 1009.3 |
| 20260904040213 | 84 | 150 | 4.0 | 11.0 | 0.00 | 0.01 | 0.01 | 65 | 1009.3 |
| 20260904035503 | 84 | 148 | 4.0 | 11.0 | 0.00 | 0.01 | 0.01 | 65 | 1009.3 |
| 20260904035003 | 84 | 148 | 5.0 | 11.0 | 0.00 | 0.01 | 0.01 | 66 | 1009.3 |
| 20260904034504 | 84 | 148 | 4.0 | 10.0 | 0.00 | 0.01 | 0.01 | 66 | 1009.3 |
| 20260904034004 | 84 | 143 | 3.0 | 8.0 | 0.00 | 0.01 | 0.01 | 67 | 1009.4 |
| 20260904033503 | 84 | 143 | 3.0 | 10.0 | 0.00 | 0.01 | 0.01 | 67 | 1009.4 |
| 20260904033003 | 84 | 142 | 3.0 | 10.0 | 0.00 | 0.01 | 0.01 | 68 | 1009.3 |
| 20260904032714 | 84 | 139 | 3.0 | 8.0 | 0.00 | 0.01 | 0.01 | 67 | 1009.4 |
| 20260904032003 | 84 | 145 | 3.0 | 8.0 | 0.00 | 0.01 | 0.01 | 67 | 1009.4 |
| 20260904031503 | 84 | 145 | 4.0 | 8.0 | 0.00 | 0.01 | 0.01 | 67 | 1009.3 |
| 20260904031003 | 84 | 148 | 4.0 | 9.0 | 0.00 | 0.01 | 0.01 | 67 | 1009.3 |
| 20260904030504 | 84 | 148 | 4.0 | 11.0 | 0.00 | 0.01 | 0.01 | 67 | 1009.2 |
| 20260904030213 | 84 | 144 | 3.0 | 11.0 | 0.00 | 0.01 | 0.01 | 67 | 1009.1 |
| 20260904025714 | 84 | 140 | 3.0 | 10.0 | 0.00 | 0.01 | 0.01 | 67 | 1009.1 |
| 20260904025003 | 84 | 133 | 3.0 | 7.0 | 0.00 | 0.01 | 0.01 | 67 | 1009.1 |
| 20260904024503 | 85 | 142 | 3.0 | 8.0 | 0.00 | 0.01 | 0.01 | 66 | 1009.1 |
| 20260904024213 | 85 | 141 | 3.0 | 8.0 | 0.00 | 0.01 | 0.01 | 66 | 1009.0 |
| 20260904023503 | 85 | 134 | 3.0 | 10.0 | 0.00 | 0.01 | 0.01 | 66 | 1009.0 |
| 20260904023003 | 85 | 139 | 3.0 | 10.0 | 0.00 | 0.01 | 0.01 | 66 | 1009.0 |
| 20260904022503 | 85 | 144 | 3.0 | 8.0 | 0.00 | 0.01 | 0.01 | 66 | 1008.9 |
| 20260904022003 | 86 | 137 | 3.0 | 8.0 | 0.00 | 0.01 | 0.01 | 65 | 1008.9 |
| 20260904021503 | 86 | 131 | 2.0 | 8.0 | 0.00 | 0.01 | 0.01 | 65 | 1008.9 |
| 20260904021003 | 86 | 137 | 3.0 | 7.0 | 0.00 | 0.01 | 0.01 | 64 | 1008.8 |
| 20260904020503 | 86 | 142 | 4.0 | 8.0 | 0.00 | 0.01 | 0.01 | 64 | 1008.8 |
| 20260904020003 | 86 | 140 | 3.0 | 8.0 | 0.00 | 0.01 | 0.01 | 64 | 1008.9 |
| 20260904015503 | 87 | 141 | 3.0 | 8.0 | 0.00 | 0.01 | 0.01 | 64 | 1008.8 |
| 20260904015003 | 87 | 150 | 3.0 | 8.0 | 0.00 | 0.01 | 0.01 | 63 | 1008.7 |
| 20260904014503 | 87 | 145 | 4.0 | 10.0 | 0.00 | 0.01 | 0.01 | 62 | 1008.7 |
| 20260904014003 | 88 | 141 | 5.0 | 11.0 | 0.00 | 0.01 | 0.01 | 62 | 1008.6 |
| 20260904013503 | 88 | 146 | 5.0 | 14.0 | 0.00 | 0.01 | 0.01 | 62 | 1008.4 |
| 20260904013004 | 88 | 146 | 5.0 | 14.0 | 0.00 | 0.01 | 0.01 | 62 | 1008.4 |
| 20260904012713 | 88 | 142 | 4.0 | 14.0 | 0.00 | 0.01 | 0.01 | 62 | 1008.3 |
| 20260904012003 | 88 | 147 | 4.0 | 8.0 | 0.00 | 0.01 | 0.01 | 63 | 1008.3 |
| 20260904011503 | 88 | 151 | 4.0 | 10.0 | 0.00 | 0.01 | 0.01 | 63 | 1008.2 |
| 20260904011003 | 88 | 147 | 4.0 | 10.0 | 0.00 | 0.01 | 0.01 | 63 | 1008.1 |
| 20260904010503 | 89 | 142 | 3.0 | 10.0 | 0.00 | 0.01 | 0.01 | 63 | 1008.1 |
| 20260904010003 | 89 | 147 | 3.0 | 8.0 | 0.00 | 0.01 | 0.01 | 63 | 1008.1 |
| 20260904005713 | 89 | 150 | 3.0 | 8.0 | 0.00 | 0.01 | 0.01 | 62 | 1008.0 |
| 20260904005003 | 90 | 148 | 4.0 | 11.0 | 0.00 | 0.01 | 0.01 | 61 | 1008.0 |
| 20260904004503 | 90 | 148 | 4.0 | 11.0 | 0.00 | 0.01 | 0.01 | 61 | 1008.0 |
| 20260904004214 | 90 | 147 | 4.0 | 11.0 | 0.00 | 0.01 | 0.01 | 60 | 1008.0 |
| 20260904003503 | 90 | 144 | 4.0 | 10.0 | 0.00 | 0.01 | 0.01 | 59 | 1007.9 |
| 20260904003003 | 91 | 149 | 4.0 | 8.0 | 0.00 | 0.01 | 0.01 | 59 | 1007.9 |
| 20260904002504 | 91 | 152 | 4.0 | 11.0 | 0.00 | 0.01 | 0.01 | 58 | 1007.9 |
| 20260904002214 | 91 | 156 | 5.0 | 11.0 | 0.00 | 0.01 | 0.01 | 58 | 1007.9 |
| 20260904001503 | 92 | 158 | 5.0 | 11.0 | 0.00 | 0.01 | 0.01 | 57 | 1007.9 |
| 20260904001003 | 92 | 154 | 5.0 | 13.0 | 0.00 | 0.01 | 0.01 | 56 | 1007.9 |
| 20260904000503 | 92 | 157 | 6.0 | 13.0 | 0.00 | 0.01 | 0.01 | 56 | 1007.9 |
| 20260904000003 | 92 | 159 | 5.0 | 13.0 | 0.00 | 0.01 | 0.01 | 55 | 1007.9 |
| 20260903235503 | 93 | 161 | 5.0 | 11.0 | 0.00 | 0.01 | 0.01 | 55 | 1007.8 |
| 20260903235214 | 93 | 163 | 5.0 | 11.0 | 0.00 | 0.01 | 0.01 | 55 | 1007.7 |
| 20260903234503 | 93 | 160 | 5.0 | 13.0 | 0.00 | 0.01 | 0.01 | 54 | 1007.7 |
| 20260903234003 | 93 | 159 | 5.0 | 13.0 | 0.00 | 0.01 | 0.01 | 55 | 1007.7 |
| 20260903233503 | 94 | 154 | 5.0 | 10.0 | 0.00 | 0.01 | 0.01 | 53 | 1007.7 |
| 20260903233214 | 94 | 156 | 5.0 | 12.0 | 0.00 | 0.01 | 0.01 | 54 | 1007.6 |
| 20260903232503 | 94 | 166 | 5.0 | 14.0 | 0.00 | 0.01 | 0.01 | 53 | 1007.7 |
| 20260903232004 | 94 | 159 | 5.0 | 14.0 | 0.00 | 0.01 | 0.01 | 52 | 1007.7 |
| 20260903231503 | 94 | 152 | 7.0 | 16.0 | 0.00 | 0.01 | 0.01 | 53 | 1007.6 |
| 20260903231003 | 94 | 153 | 6.0 | 16.0 | 0.00 | 0.01 | 0.01 | 52 | 1007.5 |
| 20260903230713 | 95 | 153 | 6.0 | 16.0 | 0.00 | 0.01 | 0.01 | 52 | 1007.5 |
| 20260903230213 | 95 | 153 | 5.0 | 11.0 | 0.00 | 0.01 | 0.01 | 53 | 1007.6 |
| 20260903225503 | 95 | 151 | 6.0 | 11.0 | 0.00 | 0.01 | 0.01 | 52 | 1007.5 |
| 20260903225003 | 95 | 156 | 6.0 | 14.0 | 0.00 | 0.01 | 0.01 | 52 | 1007.5 |
| 20260903224503 | 96 | 150 | 7.0 | 15.0 | 0.00 | 0.01 | 0.01 | 51 | 1007.5 |
| 20260903224003 | 96 | 160 | 6.0 | 15.0 | 0.00 | 0.01 | 0.01 | 51 | 1007.5 |
| 20260903223503 | 96 | 174 | 6.0 | 15.0 | 0.00 | 0.01 | 0.01 | 52 | 1007.5 |
| 20260903223003 | 96 | 164 | 5.0 | 14.0 | 0.00 | 0.01 | 0.01 | 51 | 1007.4 |
| 20260903222503 | 96 | 153 | 5.0 | 14.0 | 0.00 | 0.01 | 0.01 | 51 | 1007.4 |
| 20260903222003 | 96 | 145 | 6.0 | 14.0 | 0.00 | 0.01 | 0.01 | 51 | 1007.4 |
| 20260903221504 | 96 | 152 | 6.0 | 14.0 | 0.00 | 0.01 | 0.01 | 52 | 1007.4 |
| 20260903221003 | 96 | 173 | 7.0 | 18.0 | 0.00 | 0.01 | 0.01 | 52 | 1007.4 |
| 20260903220503 | 96 | 171 | 8.0 | 18.0 | 0.00 | 0.01 | 0.01 | 52 | 1007.4 |
| 20260903220003 | 96 | 154 | 8.0 | 16.0 | 0.00 | 0.01 | 0.01 | 52 | 1007.4 |
| 20260903215714 | 97 | 153 | 7.0 | 16.0 | 0.00 | 0.01 | 0.01 | 51 | 1007.5 |
| 20260903215003 | 97 | 175 | 5.0 | 14.0 | 0.00 | 0.01 | 0.01 | 53 | 1007.5 |
| 20260903214503 | 97 | 166 | 6.0 | 12.0 | 0.00 | 0.01 | 0.01 | 53 | 1007.5 |
| 20260903214003 | 96 | 155 | 7.0 | 14.0 | 0.00 | 0.01 | 0.01 | 52 | 1007.5 |
| 20260903213503 | 96 | 151 | 7.0 | 14.0 | 0.00 | 0.01 | 0.01 | 52 | 1007.6 |
| 20260903213003 | 97 | 148 | 7.0 | 13.0 | 0.00 | 0.01 | 0.01 | 51 | 1007.6 |
| 20260903212503 | 97 | 164 | 7.0 | 15.0 | 0.00 | 0.01 | 0.01 | 50 | 1007.5 |
| 20260903212003 | 97 | 181 | 6.0 | 15.0 | 0.00 | 0.01 | 0.01 | 51 | 1007.6 |
| 20260903211714 | 97 | 180 | 5.0 | 15.0 | 0.00 | 0.01 | 0.01 | 49 | 1007.5 |
| 20260903211004 | 97 | 182 | 7.0 | 15.0 | 0.00 | 0.01 | 0.01 | 50 | 1007.6 |
| 20260903210503 | 97 | 190 | 7.0 | 15.0 | 0.00 | 0.01 | 0.01 | 50 | 1007.6 |